Georgetown, SC

11:50 AM EDT on August 27, 2016 (GMT -0400)
Georgetown County

Weather History for KGGE - November, 2011

Change the Weather History Date:

Tuesday, November 22, 2011

  Actual Average Record
Temperature  
Mean Temperature 64 °F -  
Max Temperature 78 °F 67 °F 78 °F (2011)
Min Temperature 51 °F 43 °F 28 °F (2014)
Growing Degree Days 14 (Base 50)    
Moisture  
Dew Point 58 °F    
Average Humidity 80    
Maximum Humidity 94    
Minimum Humidity 51    
Precipitation  
Precipitation 0.00 in - - ()
Sea Level Pressure  
Sea Level Pressure 30.16 in    
Wind  
Wind Speed 3 mph (SSW)    
Max Wind Speed 13 mph    
Max Gust Speed 18 mph    
Visibility 9 miles    
Events Fog    
Averages and records for this station are not official NWS values.
T = Trace of Precipitation, MM = Missing Value Source: NWS Daily Summary

Daily Weather History Graph

Daily Weather History Graph

Search for Another Location

Airport or City:

Trip Planner

Search our weather history database for the weather conditions in past years. The results will help you decide how hot, cold, wet, or windy it might be!

Date:

Astronomy

Nov. 22, 2011 Rise Set
Actual Time 6:54 AM EST 5:11 PM EST
Civil Twilight 6:27 AM EST 5:38 PM EST
Nautical Twilight 5:57 AM EST 6:08 PM EST
Astronomical Twilight 5:28 AM EST 6:38 PM EST
Moon 3:49 AM EST (11/22) 3:05 PM EST (11/22)
Length of Visible Light 11h 10m
Length of Day
10h 17m
Waning Crescent, 9% of the Moon is Illuminated
Nov 22
Waning Crescent
Nov 25
New
Dec 2
First Quarter
Dec 10
Full
Dec 17
Last Quarter

Hourly Weather History & Observations

Time (EST) Temp. Dew Point Humidity Pressure Visibility Wind Dir Wind Speed Gust Speed Precip Events Conditions
12:15 AM 59.0 °F 55.4 °F 88% 30.19 in 10.0 mi Calm Calm - N/A   Clear
12:35 AM 57.2 °F 53.6 °F 88% 30.18 in 10.0 mi Calm Calm - N/A   Clear
12:55 AM 57.2 °F 53.6 °F 88% 30.18 in 10.0 mi SW 3.5 mph - N/A   Clear
1:15 AM 55.4 °F 53.6 °F 94% 30.19 in 10.0 mi SW 3.5 mph - N/A   Clear
1:35 AM 59.0 °F 55.4 °F 88% 30.19 in 10.0 mi SW 4.6 mph - N/A   Clear
2:15 AM 59.0 °F 55.4 °F 88% 30.19 in 10.0 mi SW 4.6 mph - N/A   Clear
2:35 AM 55.4 °F 53.6 °F 94% 30.18 in 10.0 mi SW 3.5 mph - N/A   Clear
2:55 AM 57.2 °F 53.6 °F 88% 30.18 in 10.0 mi SW 4.6 mph - N/A   Clear
3:15 AM 57.2 °F 53.6 °F 88% 30.18 in 10.0 mi West 3.5 mph - N/A   Clear
3:35 AM 55.4 °F 51.8 °F 88% 30.17 in 10.0 mi Calm Calm - N/A   Clear
4:15 AM 55.4 °F 53.6 °F 94% 30.19 in 10.0 mi Calm Calm - N/A   Clear
4:35 AM 53.6 °F 51.8 °F 94% 30.19 in 10.0 mi Calm Calm - N/A   Clear
4:55 AM 55.4 °F 51.8 °F 88% 30.19 in 10.0 mi Calm Calm - N/A   Clear
5:15 AM 53.6 °F 51.8 °F 94% 30.19 in 10.0 mi Calm Calm - N/A   Clear
5:35 AM 53.6 °F 51.8 °F 94% 30.19 in 5.0 mi Calm Calm - N/A   Clear
5:55 AM 53.6 °F 51.8 °F 94% 30.20 in 10.0 mi Calm Calm - N/A   Clear
6:35 AM 53.6 °F 51.8 °F 94% 30.20 in 5.0 mi Calm Calm - N/A   Clear
6:55 AM 51.8 °F 50.0 °F 94% 30.21 in 10.0 mi Calm Calm - N/A   Clear
7:15 AM 53.6 °F 51.8 °F 94% 30.21 in 10.0 mi Calm Calm - N/A   Clear
7:35 AM 53.6 °F 51.8 °F 94% 30.22 in 10.0 mi Calm Calm - N/A   Clear
8:35 AM 60.8 °F 59.0 °F 94% 30.24 in 10.0 mi Calm Calm - N/A   Clear
8:55 AM 64.4 °F 59.0 °F 83% 30.25 in 10.0 mi Calm Calm - N/A   Clear
9:15 AM 68.0 °F 60.8 °F 78% 30.24 in 10.0 mi West 3.5 mph - N/A   Clear
9:35 AM 68.0 °F 60.8 °F 78% 30.24 in 10.0 mi SW 3.5 mph - N/A   Clear
9:55 AM 69.8 °F 60.8 °F 73% 30.24 in 10.0 mi WSW 5.8 mph - N/A   Clear
10:15 AM 71.6 °F 60.8 °F 69% 30.23 in 10.0 mi West 3.5 mph - N/A   Clear
10:35 AM 73.4 °F 60.8 °F 65% 30.22 in 10.0 mi WSW 6.9 mph - N/A   Clear
10:55 AM 73.4 °F 62.6 °F 69% 30.21 in 10.0 mi SSW 9.2 mph - N/A   Clear
11:15 AM 75.2 °F 62.6 °F 65% 30.20 in 10.0 mi SSW 5.8 mph - N/A   Clear
11:35 AM 77.0 °F 60.8 °F 57% 30.19 in 10.0 mi South 9.2 mph - N/A   Scattered Clouds
11:55 AM 77.0 °F 60.8 °F 57% 30.18 in 10.0 mi SSW 9.2 mph - N/A   Mostly Cloudy
12:15 PM 78.8 °F 59.0 °F 51% 30.17 in 10.0 mi South 11.5 mph - N/A   Mostly Cloudy
12:35 PM 77.0 °F 59.0 °F 54% 30.16 in 10.0 mi South 6.9 mph - N/A   Scattered Clouds
12:55 PM 77.0 °F 59.0 °F 54% 30.15 in 10.0 mi SSW 9.2 mph - N/A   Scattered Clouds
1:15 PM 77.0 °F 60.8 °F 57% 30.14 in 10.0 mi SSW 11.5 mph - N/A   Mostly Cloudy
1:35 PM 75.2 °F 60.8 °F 61% 30.14 in 10.0 mi SSW 11.5 mph - N/A   Overcast
1:55 PM 77.0 °F 60.8 °F 57% 30.12 in 10.0 mi SSW 11.5 mph - N/A   Mostly Cloudy
2:15 PM 77.0 °F 60.8 °F 57% 30.12 in 10.0 mi South 12.7 mph 18.4 mph N/A   Scattered Clouds
2:35 PM 77.0 °F 60.8 °F 57% 30.11 in 10.0 mi SW 12.7 mph - N/A   Mostly Cloudy
3:15 PM 77.0 °F 60.8 °F 57% 30.11 in 10.0 mi South 10.4 mph - N/A   Mostly Cloudy
3:55 PM 73.4 °F 59.0 °F 61% 30.10 in 10.0 mi South 10.4 mph - N/A   Clear
4:15 PM 73.4 °F 60.8 °F 65% 30.10 in 10.0 mi South 10.4 mph - N/A   Clear
4:35 PM 71.6 °F 60.8 °F 69% 30.10 in 10.0 mi South 6.9 mph - N/A   Clear
5:15 PM 69.8 °F 60.8 °F 73% 30.10 in 10.0 mi SSE 4.6 mph - N/A   Clear
5:35 PM 68.0 °F 62.6 °F 83% 30.09 in 10.0 mi SSE 4.6 mph - N/A   Clear
5:55 PM 66.2 °F 62.6 °F 88% 30.10 in 10.0 mi South 3.5 mph - N/A   Clear
6:35 PM 64.4 °F 60.8 °F 88% 30.09 in 10.0 mi SSE 3.5 mph - N/A   Clear
6:55 PM 64.4 °F 60.8 °F 88% 30.09 in 10.0 mi SE 3.5 mph - N/A   Clear
7:15 PM 62.6 °F 60.8 °F 94% 30.09 in 10.0 mi Calm Calm - N/A   Clear
7:35 PM 62.6 °F 60.8 °F 94% 30.08 in 0.5 mi Calm Calm - N/A Fog Fog
7:55 PM 62.6 °F 60.8 °F 94% 30.09 in 0.2 mi Calm Calm - N/A Fog Fog
8:15 PM 60.8 °F 59.0 °F 94% 30.08 in 0.2 mi Calm Calm - N/A Fog Fog
8:35 PM 60.8 °F 59.0 °F 94% 30.08 in 1.0 mi South 3.5 mph - N/A   Mist
8:55 PM 62.6 °F 60.8 °F 94% 30.08 in 10.0 mi South 4.6 mph - N/A   Clear
9:15 PM 62.6 °F 60.8 °F 94% 30.08 in 10.0 mi South 3.5 mph - N/A   Clear
9:35 PM 64.4 °F 60.8 °F 88% 30.08 in 10.0 mi SSW 5.8 mph - N/A   Clear
9:55 PM 64.4 °F 62.6 °F 94% 30.07 in 10.0 mi SSW 6.9 mph - N/A   Scattered Clouds
10:15 PM 64.4 °F 62.6 °F 94% 30.07 in 10.0 mi South 5.8 mph - N/A   Scattered Clouds
10:35 PM 66.2 °F 62.6 °F 88% 30.06 in 10.0 mi South 6.9 mph - N/A   Mostly Cloudy
10:55 PM 66.2 °F 62.6 °F 88% 30.05 in 10.0 mi South 5.8 mph - N/A   Mostly Cloudy
11:15 PM 68.0 °F 64.4 °F 88% 30.04 in 10.0 mi South 6.9 mph - N/A   Scattered Clouds
11:35 PM 68.0 °F 64.4 °F 88% 30.04 in 10.0 mi SSW 8.1 mph - N/A   Mostly Cloudy
11:55 PM 69.8 °F 64.4 °F 83% 30.03 in 10.0 mi SSW 9.2 mph - N/A   Mostly Cloudy